Location: Austin
(30.3000°N, 97.7500°W)
Time: 23:04:46
(UTC-05:00)

Cosmos 1725 Rocket - Pass Details

Date: 06 May 2026
Orbit: 960 x 990 km, 82.9° (Epoch: 13 May)

Event Time Altitude Azimuth Distance (km) Brightness Sun altitude
Exits shadow 22:09:51 47° 129° (SE) 1,281 4.1 -23.1°
Maximum altitude 22:11:04 54° 91° (E) 1,180 4.1 -23.3°
Drops below altitude 10° 22:17:09 10° 16° (NNE) 2,733 6.6 -24.3°
Sets 22:19:42 0° 12° (NNE) 3,680 7.4 -24.7°
